• Join FlightAware (Why Join?)
  • Login
  • US Flag 
08:50AM EST


 

Airport Tracker/Info


-or-


 

Live Flight TrackerFlight Track Log ✈ ASQ5685 ✈ 23-Jul-2013 ✈ KATL - KIAD

Flight Track Log - Related Links

Times and Time Zones

All times are in EDT time to prevent confusion due to time zone crossing. See the ASQ5685 flight status page for this flight to view local times or setup timezone preferences in your user account.

Time Position Orientation Groundspeed Altitude Reporting Facility
EDT Latitude Longitude Course Direction KTS MPH feet Rate Location/Type
10:05AM 33.6167 -84.5000 48° Northeast 208 239 2,300  Level Atlanta TRACON
10:06AM 33.5833 -84.5667 239° Southwest 262 302 5,200 2,524 Climbing Atlanta TRACON
10:07AM 33.8566 -84.1665 73° East  Level Estimated
10:07AM 33.5167 -84.5833 192° South 286 329 7,600  Level Atlanta TRACON
10:08AM 33.9298 -84.0791 54° Northeast  Level Estimated
10:08AM 33.4553 -84.4869 127° Southeast 303 349 10,000  Level Atlanta Center
10:09AM 33.9042 -83.9588 104° East  Level FlightAware Approximate
10:09AM 33.4578 -84.3650 89° East 363 418 10,700  Level Atlanta Center
10:10AM 33.9782 -83.8723 48° Northeast  Level Estimated
10:10AM 33.4956 -84.2556 67° East 349 402 11,300  Level Atlanta Center
10:11AM 33.5917 -84.1908 29° Northeast 336 387 12,400 1,100 Climbing Atlanta Center
10:12AM 33.6878 -84.1261 29° Northeast 368 423 13,500 1,050 Climbing Atlanta Center
10:13AM 33.7672 -84.0289 45° Northeast 388 447 14,500 900 Climbing Atlanta Center
10:14AM 33.8256 -83.9114 59° Northeast 406 467 15,300 750 Climbing Atlanta Center
10:15AM 33.8817 -83.8061 57° Northeast 411 473 16,000 650 Climbing Atlanta Center
10:16AM 33.9461 -83.6833 58° Northeast 422 486 16,600 550 Climbing Atlanta Center
10:17AM 34.0208 -83.5700 51° Northeast 427 491 17,100 500 Climbing Atlanta Center
10:18AM 34.0933 -83.4569 52° Northeast 427 491 17,600 450 Climbing Atlanta Center
10:19AM 34.1678 -83.3358 53° Northeast 438 504 18,000 450 Climbing Atlanta Center
10:20AM 34.2381 -83.2197 54° Northeast 438 504 18,500 500 Climbing Atlanta Center
10:21AM 34.3144 -83.1031 52° Northeast 438 504 19,000 500 Climbing Atlanta Center
10:22AM 34.3928 -82.9739 54° Northeast 431 496 19,500 500 Climbing Atlanta Center
10:23AM 34.4669 -82.8547 53° Northeast 431 496 20,000 800 Climbing Atlanta Center
10:24AM 34.5367 -82.7350 55° Northeast 431 496 21,100 1,150 Climbing Atlanta Center
10:25AM 34.6022 -82.6256 54° Northeast 426 490 22,300 850 Climbing Atlanta Center
10:26AM 34.6719 -82.5258 50° Northeast 418 481 22,800 500 Climbing Atlanta Center
10:27AM 34.7414 -82.4083 54° Northeast 418 481 23,300 500 Climbing Atlanta Center
10:28AM 34.8150 -82.2931 52° Northeast 418 481 23,800 500 Climbing Atlanta Center
10:29AM 34.8861 -82.1725 54° Northeast 423 487 24,300 500 Climbing Atlanta Center
10:30AM 34.9633 -82.0442 54° Northeast 423 487 24,800 500 Climbing Atlanta Center
10:31AM 35.0386 -81.9231 53° Northeast 434 499 25,300 800 Climbing Atlanta Center
10:32AM 35.1033 -81.7997 57° Northeast 429 494 26,400 1,000 Climbing Atlanta Center
10:33AM 35.1656 -81.6783 58° Northeast 419 482 27,300 700 Climbing Atlanta Center
10:34AM 35.2300 -81.5597 56° Northeast 419 482 27,800 500 Climbing Atlanta Center
10:35AM 35.2942 -81.4381 57° Northeast 419 482 28,300 500 Climbing Atlanta Center
10:36AM 35.3542 -81.3167 59° Northeast 419 482 28,800 500 Climbing Atlanta Center
10:37AM 35.4183 -81.1922 58° Northeast 424 488 29,300 500 Climbing Atlanta Center
10:38AM 35.4842 -81.0675 57° Northeast 424 488 29,800 500 Climbing Atlanta Center
10:39AM 35.5497 -80.9425 57° Northeast 424 488 30,300 500 Climbing Atlanta Center
10:40AM 35.6133 -80.8200 57° Northeast 424 488 30,800 350 Climbing Atlanta Center
10:41AM 35.6789 -80.6972 57° Northeast 419 482 31,000 100 Climbing Atlanta Center
10:42AM 35.7444 -80.5692 58° Northeast 425 489 31,000  Level Atlanta Center
10:43AM 35.8117 -80.4408 57° Northeast 440 506 31,000  Level Atlanta Center
10:45AM 35.9203 -80.2242 58° Northeast 479 551 31,000  Level Washington Center
10:46AM 35.9881 -80.0919 58° Northeast 474 545 31,000  Level Washington Center
10:47AM 36.0575 -79.9600 57° Northeast 463 533 31,000  Level Washington Center
10:48AM 36.1311 -79.8303 55° Northeast 463 533 31,000  Level Washington Center
10:49AM 36.2000 -79.7078 55° Northeast 478 550 31,000 -397 Level Washington Center
10:50AM 36.2822 -79.5600 55° Northeast 478 550 30,200 -908 Descending Washington Center
10:51AM 36.3617 -79.4247 54° Northeast 478 550 29,200 -1,008 Descending Washington Center
10:52AM 36.4394 -79.2789 56° Northeast 487 560 28,200 -992 Descending Washington Center
10:53AM 36.5208 -79.1356 55° Northeast 492 566 27,200 -1,008 Descending Washington Center
10:54AM 36.6022 -78.9969 54° Northeast 492 566 26,200 -958 Descending Washington Center
10:55AM 36.6728 -78.8628 57° Northeast 505 581 25,300 -595 Descending Washington Center
10:56AM 36.7517 -78.7208 55° Northeast 505 581 25,000 -153 Descending Washington Center
10:57AM 36.8261 -78.5811 56° Northeast 495 570 25,000 -454 Level Washington Center
10:58AM 36.9350 -78.4736 38° Northeast 458 527 24,100 -934 Descending Washington Center
10:59AM 37.0308 -78.3914 34° Northeast 439 505 23,100 -590 Descending Washington Center
11:00AM 37.1097 -78.3264 33° Northeast 426 490 22,900 -555 Descending Washington Center
11:01AM 37.2286 -78.2317 32° Northeast 420 483 22,000 -454 Descending Washington Center
11:02AM 37.3242 -78.1539 33° Northeast 420 483 22,000  Level Washington Center
11:03AM 37.4217 -78.0736 33° Northeast 420 483 22,000 -51 Level Washington Center
11:04AM 37.5172 -77.9956 33° Northeast 420 483 21,900 -605 Descending Washington Center
11:05AM 37.6147 -77.9172 32° Northeast 420 483 20,800 -1,180 Descending Washington Center
11:06AM 37.7081 -77.8389 34° Northeast 420 483 19,500 -1,983 Descending Washington Center
11:07AM 37.7969 -77.7625 34° Northeast 408 470 16,800 -2,628 Descending Washington Center
11:08AM 37.8858 -77.6914 32° Northeast 385 443 14,200 -2,529 Descending Washington Center
11:09AM 37.9664 -77.6225 34° Northeast 364 419 11,700 -2,136 Descending Washington Center
11:10AM 38.0422 -77.5639 31° Northeast 357 411 10,000 -864 Descending Washington Center
11:11AM 38.1228 -77.4975 33° Northeast 352 405 10,000 -50 Level Washington Center
11:12AM 38.1925 -77.4383 34° Northeast 329 379 9,900 -942 Descending Washington Center
11:13AM 38.2539 -77.3711 41° Northeast 303 349 8,100 -1,450 Descending Washington Center
11:14AM 38.3222 -77.4019 341° North 238 274 7,000 -744 Descending Washington Center
11:15AM 38.3925 -77.4381 338° Northwest 244 281 6,600 -1,140 Descending Washington Center
11:16AM 38.4656 -77.4425 357° North 250 288 4,700 -1,322 Descending Washington Center
11:17AM 38.5383 -77.4444 359° North 256 295 4,000 -559 Descending Washington Center
11:18AM 38.6094 -77.4436 North 251 289 3,600 -288 Descending Washington Center
11:19AM 38.6667 -77.4333 North 253 291 3,500 -61 Descending Potomac TRACON
11:20AM 38.7333 -77.4333 360° North 234 269 3,500 -368 Level Potomac TRACON
11:21AM 38.8000 -77.4333 360° North 210 242 2,800 -850 Descending Potomac TRACON
11:22AM 38.8500 -77.4333 360° North 193 222 1,800 -900 Descending Potomac TRACON
11:23AM 38.9000 -77.4333 360° North 148 170 1,000 -800 Descending Potomac TRACON